TITAN 3C TRANSTAGE DEB, 1859

Orbit data source: Space-Track

TITAN 3C TRANSTAGE DEB, 1859 is space debris in LEO originally from a launch on Fri, 15 Oct 1965 UTC launched from the Air Force Eastern Test Range (AFETR). Debris objects in space refer to the collection of defunct objects orbiting the Earth. Examples of debris include non-operational satellites, rocket bodies, and fragments generated from explosions, collisions, or faulty payload assembly.

Loading next visibility...
Identifier
1859, 1965-082ES
Orbit
LEO
Country
Flag of USUS
Related business
Manufacturer
Unknown
Mission
Spacecraft
Bus & Motor
Unknown
Mass
Unknown
Launch date (UTC)
1965-10-15 (60 years ago)
Launch vehicle
Unknown
Launch site
Air Force Eastern Test Range (AFETR)
Object type
Payload
Rocket body
Debris
Shape & HBR
Unknown shape, 0.3 m
Radar Cross Section
Medium (>0.1 m² and <1 m²)

Expand to show TLE details & history
Last TLE update: 9 hours ago

TLE from 9 hours ago
0 TITAN 3C TRANSTAGE DEB
1 01859U 65082ES  25290.90807965  .00000953  00000-0  23301-3 0  9995
2 01859  32.1247 128.7326 0066959  28.5602 331.8685 14.48782377151902
Epoch: 2025-10-17T21:47Z
TLE epoch observation values (Epoch: 2025-10-17T21:47:38.081Z)
Latitude
Longitude
135.17723°
Altitude
686.397 km
Speed
7.538 km/s
True Right ascension
08h 34m 55s
True Declination
0° 00' 00"
Sunlit
Object was in daylight at epoch
Visualization orbit readout
Latitude
Unknown
Longitude
Unknown
Altitude
Unknown
Speed
Unknown
Apparent Right ascension
Unknown
Apparent Declination
Unknown
Sunlit
N/A
Visualization observer readout
Local Sidereal Time
01:28:37
Azimuth
Unknown
Elevation
Unknown
Doppler factor
Unknown
Orbital elements
Apogee altitude
780.819 km
Perigee altitude
685.585 km
Semi-major axis
7,111.339 km
Eccentricity
0.0067
Inclination
32.1247°
RAAN
128.7326°
Arg. of periapsis
28.5602°
True anomaly
331.50404°
Mean anomaly
331.8685°
Eccentric anomaly
331.68654°
Mean motion
3.61923 °/min
Orbital period
99.47 mins
BSTAR
0.00023301

Documentation

Showing up to 5 results
|